Terminal Aerodrome Forecast
Issued by NWS Springfield, MO

Home | Current Version | Previous Version | Text Only | Print | Product List | Glossary On
Versions: 1 2 3 4 5 6 7 8 9 10 11 12 13 14 15 16 17 18 19 20 21 22 23 24 25 26 27
000
FTUS43 KSGF 220520
TAFSGF
TAF
KSGF 220520Z 2206/2306 11010KT P6SM VCSH OVC080
      TEMPO 2206/2210 4SM -SHRA BR OVC060
     FM221200 06010KT 4SM -RA BR OVC015
     FM221400 03013KT 2SM -RA BR OVC007
     FM221800 36016G24KT 4SM -RA BR OVC015
     FM222300 34020G28KT P6SM OVC050=

USA.gov is the U.S. government's official web portal to all federal, state and local government web resources and services.